Regional Weather Roundup
Issued by NWS

Home | Current Version | Previous Version | Text Only | Print | Product List | Glossary Off
Versions: 1 2 3 4 5 6 7 8 9 10 11 12 13 14 15 16 17 18 19 20 21 22 23 24 25 26 27 28 29 30 31 32 33 34 35 36 37 38 39 40 41 42 43 44 45 46 47 48 49 50

305
ASUS43 KIND 151159
RWRIN

WEATHER ROUNDUP FOR INDIANA
NATIONAL WEATHER SERVICE INDIANAPOLIS IN
700 AM EST FRI DEC 15 2017

NOTE: "FAIR" INDICATES FEW OR NO CLOUDS BELOW 12,000 FEET WITH NO
SIGNIFICANT WEATHER AND/OR OBSTRUCTIONS TO VISIBILITY.

* - STATION DOES NOT REPORT WEATHER SUCH AS PRECIPITATION OR FOG.

+ - STATION NOT QUALITY CONTROLLED BY THE NATIONAL WEATHER SERVICE.
    USE DATA WITH CAUTION...ESPECIALLY DEWPOINT AND RELATIVE
    HUMIDITY OBSERVATIONS.

INZ001>003-010>013-019-020-151300-
NORTHWEST INDIANA

CITY           SKY/WX    TMP DP  RH WIND       PRES   REMARKS
GARY /AIRPORT/ CLOUDY    27  16  63 W13       29.94F WCI  16
KNOX *+        CLOUDY    23  16  74 SW12      29.94F WCI  12
LA PORTE +     CLEAR     21  15  76 SW10      29.93S WCI  10
MICHIGAN CITY+ CLOUDY    23  16  74 SW12      29.93S WCI  12
MONTICELLO +   CLOUDY    23  15  73 SW7       29.97F WCI  14
6HR MIN TEMP:  16; 6HR MAX TEMP:  23;

RENSSELAER +   CLOUDY    25  16  68 SW9       29.97S WCI  15

$$

LMZ046-743>745-151300-
SOUTHERN LAKE MICHIGAN

STATION/POSITION TIME  TEMP    WIND        PRES    WAVE
                       AIR SEA DIR/SP/G            HT
                 (UTC) (F)     (DEG/KT/KT) (MB)    (FT)
BURNS HARBOR     1140   25     230/ 12/ 18 1013.9F
MICHIGAN CITY    1130   24     200/ 19/ 21   N/A

$$

INZ004-005-014>016-021>024-151300-
NORTH CENTRAL INDIANA

CITY           SKY/WX    TMP DP  RH WIND       PRES   REMARKS
ELKHART        CLOUDY    21  12  68 SW8       29.91  WCI  12
GOSHEN         CLOUDY    21  13  71 SW10      29.92F WCI  10
6HR MIN TEMP:  17; 6HR MAX TEMP:  21;

PERU/GRISSOM   CLOUDY    23  17  79 SW8       29.96F WCI  14
6HR MIN TEMP:  20; 6HR MAX TEMP:  23;

SOUTH BEND     CLOUDY    20  13  74 SW13      29.92F WCI   7
6HR MIN TEMP:  12; 6HR MAX TEMP:  20;

WARSAW +       CLOUDY    21  14  73 SW5       29.94F WCI  15

$$

INZ006>009-017-018-025>027-151300-
NORTHEAST INDIANA

CITY           SKY/WX    TMP DP  RH WIND       PRES   REMARKS
AUBURN +       CLOUDY    25  16  68 SW7       29.95S WCI  17
FORT WAYNE     CLOUDY    24  18  77 SW10      29.96S WCI  14
6HR MIN TEMP:  21; 6HR MAX TEMP:  24; 6HR PCP: TRACE;

KENDALLVILLE + CLOUDY    21  15  76 SW8       29.92F WCI  11

$$

INZ028-029-035-036-043>045-051>053-151300-
WEST CENTRAL INDIANA

CITY           SKY/WX    TMP DP  RH WIND       PRES   REMARKS
CRAWFORDSVL +  CLOUDY    23  17  78 MISG        N/A
6HR MIN TEMP:  19; 6HR MAX TEMP:  24;

GREENCASTLE +  CLOUDY    27  18  69 W5        30.03S WCI  21
LAFAYETTE      CLOUDY    23  18  81 W5        30.00F WCI  17
6HR MIN TEMP:  19; 6HR MAX TEMP:  23;

TERRE HAUTE    CLOUDY    28  17  63 W10       30.05S WCI  19
6HR MIN TEMP:  27; 6HR MAX TEMP:  29;


$$

INZ030>032-037>040-046>048-054>057-064-065-151300-
CENTRAL INDIANA

CITY           SKY/WX    TMP DP  RH WIND       PRES   REMARKS
FRANKFORT +    CLOUDY    26  19  75 W13       30.01S WCI  15
6HR MIN TEMP:  24; 6HR MAX TEMP:  26;

GREENWOOD *+   CLOUDY    28  19  69 SW6       30.02S WCI  22
INDIANAPOLIS   CLOUDY    26  16  65 SW9       30.01S WCI  17
6HR MIN TEMP:  23; 6HR MAX TEMP:  26;

-EAGLE CREEK   CLOUDY    26  16  65 VRB5      30.00F WCI  20
6HR MIN TEMP:  24; 6HR MAX TEMP:  26;

KOKOMO +       CLOUDY    24  18  77 SW9       29.98S WCI  14
6HR MIN TEMP:  22; 6HR MAX TEMP:  24;

MT COMFORT *+  CLOUDY    23  19  86 SW6       30.00F WCI  16
SHELBYVILLE    CLOUDY    25  17  72 SW7       30.01F WCI  17
6HR MIN TEMP:  17; 6HR MAX TEMP:  25;


$$

INZ033-034-041-042-049-050-058-059-151300-
EAST CENTRAL INDIANA

CITY           SKY/WX    TMP DP  RH WIND       PRES   REMARKS
MUNCIE         CLOUDY    25  14  63 SW12G17   29.98F WCI  14
6HR MIN TEMP:  22; 6HR MAX TEMP:  25;

RICHMOND +     CLOUDY    21  19  93 SW7       29.99F WCI  13

$$

INZ060-061-067>069-081>083-085>088-151300-
SOUTHWEST INDIANA

CITY           SKY/WX    TMP DP  RH WIND       PRES   REMARKS
EVANSVILLE     CLOUDY    30  21  69 W7        30.10R WCI  23
6HR MIN TEMP:  30; 6HR MAX TEMP:  31; 6HR PCP: TRACE;

HUNTINGBURG +  CLOUDY    29  23  78 W6        30.08R WCI  23
6HR MIN TEMP:  29; 6HR MAX TEMP:  30;


$$

INZ062-063-066-070>080-084-089>092-151300-
SOUTH CENTRAL AND SOUTHEAST INDIANA

CITY           SKY/WX    TMP DP  RH WIND       PRES   REMARKS
BLOOMINGTON    CLOUDY    26  17  68 W5        30.03S WCI  20
6HR MIN TEMP:  21; 6HR MAX TEMP:  26;

MADISON *+     CLOUDY    23  19  86 CALM      30.06R
SEYMOUR +      CLOUDY    25  19  80 CALM      30.05S

$$





USA.gov is the U.S. government's official web portal to all federal, state and local government web resources and services.